GPS BIIRM-2 (PRN 31)

Last updated on Sun Nov 16 2025 00:04:22 GMT+0000 (Coordinated Universal Time)

1 29486U 06042A 25319.36189000 .00000091 00000+0 00000+0 0 9996 2 29486 54.6903 159.8275 0107294 51.2367 135.6489 2.00555165140103
UTC large
Height (km)
Speed (km/s)
/
Latitude / Longitude
Inclination (degrees)
Orbital Period (minutes)
Azimuth
Elevation
Range (km)
Doppler Factor

Next 0 passes for location: London (51.5072 / 0.1276)

Sorry there are no passes over London.